Satellite: METEOR-M Catalog number: 35865 Epoch time: 11111.71353852 Element set: 300 Inclination: 098.7119 deg RA of node: 167.5593 deg Eccentricity: 0.0002007 Arg of perigee: 174.8127 deg Mean anomaly: 185.3026 deg Mean motion: 14.21837014 rev/day Decay rate: 1.76e-06 rev/day^2 Epoch rev: 8256 Checksum: 280
Satellite: RS-38 Catalog number: 35869 Epoch time: 11111.72046957 Element set: 305 Inclination: 098.7089 deg RA of node: 167.6044 deg Eccentricity: 0.0004202 Arg of perigee: 184.5055 deg Mean anomaly: 175.6063 deg Mean motion: 14.22007428 rev/day Decay rate: 1.77e-06 rev/day^2 Epoch rev: 8257 Checksum: 305
/EX